Wellington, FL

12:40 PM EDT on July 02, 2015 (GMT -0400)
Pinewood West | | Change Station
CLOSE
Current Station
Personal Weather Station
Location: Wellington, FL
Elevation: 43 ft
Nearby Weather Stations

Elev 43 ft 26.68 °N, 80.25 °W | Updated 3 seconds ago

Overcast
Overcast
85.3 °F
Feels Like 82 °F
N
0.0
Wind Variable Wind from East
Gusts 0.0 mph

Today
High -- | Low -- °F
--% Chance of Precip.
Yesterday
High -- | Low -- °F
Precip. -- in
6:31 AM 8:18 PM
Full, 100% visible
Pressure 30.15 in
Visibility 10.0 miles
Clouds Scattered Clouds 2700 ft
Scattered Clouds 16000 ft
Mostly Cloudy 23000 ft
Heat Index 82 °F
Dew Point 23 °F
Humidity 10%
Rainfall 0.00 in
Snow Depth Not available.
UV 5.0 out of 12
Pollen 4.20 out of 12
Air Quality Not available.
Flu Activity Not available.
METAR KPBI 021553Z VRB04KT 10SM SCT027CB SCT160 BKN230 31/23 A3015 RMK AO2 SLP210 CB SW-W MOV NW T03110233 $

More Conditions Fewer Conditions

Pressure 30.15 in
Visibility 10.0 miles
Clouds Scattered Clouds 2700 ft
Scattered Clouds 16000 ft
Mostly Cloudy 23000 ft
Heat Index 82 °F
Dew Point 23 °F
Humidity 10%
Rainfall 0.00 in
Snow Depth Not available.
UV 5.0 out of 12
Pollen 4.20 out of 12
Air Quality Not available.
Flu Activity Not available.
METAR KPBI 021553Z VRB04KT 10SM SCT027CB SCT160 BKN230 31/23 A3015 RMK AO2 SLP210 CB SW-W MOV NW T03110233 $

More Conditions Fewer Conditions

10-Day Weather Forecast

×

Almanac

Astronomy

Jul. 02, 2015 Rise Set
Actual Time
Civil Twilight
Nautical Twilight
Astronomical Twilight
Moon
Length of Visible Light
Length of Day
Tomorrow will be .
, % of the Moon is Illuminated

Today's Extremes

State Highs State Lows

Community

WunderPhotos

Upload Photos

1,834,498 photos uploaded!

WunderBlogs® & News

Nearby

Air Quality

  Air Quality AQ Index Pollutant
Not available.

Snow Depth

Station Depth Elevation

Earthquake Activity

City Distance Mag. Time & Date
Minimum magnitude displayed is 2.5.

Coastal Water Temperatures

Place Temperature

Stations

Nearby Weather Stations

Station Location Temp. Windchill Dew Point Humidity Wind Precip. Elev Updated Type